Waarnemingen

Advertentie
Mijn weer
Ahaus, Duitsland (10309): temperatuur & dauwpunt: 22.05.2017 06:00:00 - 28.05.2017 06:00:00 (CEST)Ahaus, Duitsland (10309): temperatuur 5cm & temperatuur -5cm: 22.05.2017 06:00:00 - 28.05.2017 06:00:00 (CEST)Ahaus, Duitsland (10309): temperatuur -20cm & temperatuur -100cm: 22.05.2017 06:00:00 - 28.05.2017 06:00:00 (CEST)Ahaus, Duitsland (10309): windsnelheid & windstoten: 22.05.2017 06:00:00 - 28.05.2017 06:00:00 (CEST)Ahaus, Duitsland (10309): windrichting: 22.05.2017 06:00:00 - 28.05.2017 06:00:00 (CEST)Ahaus, Duitsland (10309): luchtdruk: 22.05.2017 06:00:00 - 28.05.2017 06:00:00 (CEST)Ahaus, Duitsland (10309): zicht: 22.05.2017 06:00:00 - 28.05.2017 06:00:00 (CEST)Ahaus, Duitsland (10309): Zonneschijnduur: 22.05.2017 06:00:00 - 28.05.2017 06:00:00 (CEST)Ahaus, Duitsland (10309): neerslag: 22.05.2017 06:00:00 - 28.05.2017 06:00:00 (CEST)
Datum & Tijd tt [°C] td [°C] tt 5cm [°C] tt -5cm [°C] tt -20cm [°C] tt -100cm [°C] ff [km/u] ff [kn] fx [km/u] fx [kn] dd ppp [hPa] vv [km] sd [min] rr [mm]
28.05.2017 06:00:00 18,2 13,5 17,6 20,2 21,9 14,9 9 5 20 11 NW 1019,0 14 0 0,0
28.05.2017 05:00:00 15,5 14,3 13,1 20,2 22,2 14,9 6 3 9 5 W 1017,9 10 0 0,0
28.05.2017 04:00:00 15,8 14,2 13,3 20,9 22,6 14,9 2 1 4 2 WZW 1017,6 11 0 0,0
28.05.2017 03:00:00 17,0 14,6 14,1 21,5 22,9 14,9 0 0 7 4 N 1017,8 13 0 0,0
28.05.2017 02:00:00 18,7 14,7 16,4 22,1 23,3 14,8 4 2 13 7 WZW 1017,6 16 0 0,0
28.05.2017 01:00:00 20,7 14,2 18,8 22,6 23,7 14,8 11 6 20 11 WNW 1017,5 23 0 0,0
28.05.2017 00:00:00 19,7 12,4 16,0 23,4 24,2 14,8 6 3 11 6 NW 1017,1 35 0 0,0
27.05.2017 23:00:00 21,6 11,5 16,1 24,5 24,6 14,8 8 4 10 5 ZO 1016,7 45 0 0,0
27.05.2017 22:00:00 23,2 11,7 17,4 26,1 24,8 14,8 7 4 10 6 ZO 1016,2 50 0 0,0
27.05.2017 21:00:00 26,8 11,2 23,4 27,9 25,0 14,8 8 4 14 8 ZO 1015,8 54 59 0,0
27.05.2017 20:00:00 28,6 10,9 28,9 29,3 24,9 14,8 11 6 24 13 ZZO 1015,6 45 60 0,0
27.05.2017 19:00:00 30,0 9,5 31,3 30,5 24,7 14,7 14 8 28 15 ZZO 1015,7 42 60 0,0
27.05.2017 18:00:00 31,3 8,3 33,9 31,3 24,3 14,7 14 8 33 18 Z 1016,0 37 60 0,0
27.05.2017 17:00:00 30,2 10,8 33,3 31,7 23,8 14,7 21 12 36 19 ZO 1016,2 23 60 0,0
27.05.2017 16:00:00 29,8 12,7 33,6 31,7 23,2 14,7 20 11 38 21 ZO 1016,6 25 60 0,0
27.05.2017 15:00:00 28,8 12,7 32,5 31,4 22,6 14,7 26 14 37 20 OZO 1017,1 16 60 0,0
27.05.2017 14:00:00 27,7 14,0 31,8 30,4 21,9 14,6 22 12 36 19 OZO 1017,6 11 60 0,0
27.05.2017 13:00:00 27,5 13,7 32,1 29,2 21,2 14,6 21 11 36 19 ZO 1018,0 16 60 0,0
27.05.2017 12:00:00 26,2 13,0 30,4 27,8 20,6 14,6 21 11 33 18 ZO 1018,6 13 60 0,0
27.05.2017 11:00:00 25,2 13,9 29,1 25,8 20,1 14,6 15 8 28 15 ZO 1019,3 18 60 0,0
27.05.2017 10:00:00 23,4 13,5 26,6 23,7 19,8 14,6 16 9 27 15 ZO 1019,8 27 60 0,0
27.05.2017 09:00:00 22,4 13,8 24,8 21,7 19,7 14,6 13 7 23 12 ZO 1019,9 19 60 0,0
27.05.2017 08:00:00 19,7 13,1 20,7 19,7 19,8 14,5 13 7 19 10 ZO 1019,9 23 60 0,0
27.05.2017 07:00:00 17,1 12,6 17,4 18,4 20,1 14,5 9 5 14 8 OZO 1020,1 23 50 0,0
27.05.2017 06:00:00 15,5 12,1 12,3 17,9 20,5 14,5 7 4 14 8 OZO 1019,8 21 0 0,0
27.05.2017 05:00:00 15,2 12,2 10,1 18,4 20,8 14,5 5 3 11 6 O 1019,8 15 0 0,0
27.05.2017 04:00:00 16,8 12,8 13,3 19,2 21,2 14,5 7 4 17 9 O 1019,5 17 0 0,0
27.05.2017 03:00:00 17,9 12,9 16,0 19,8 21,6 14,5 9 5 16 9 O 1019,7 19 0 0,0
27.05.2017 02:00:00 18,8 12,9 16,5 20,4 22,0 14,5 8 4 17 9 OZO 1019,8 23 0 0,0
27.05.2017 01:00:00 19,4 12,9 17,3 21,1 22,4 14,4 8 5 22 12 O 1019,9 26 0 0,0
27.05.2017 00:00:00 19,5 12,6 17,7 21,9 22,9 14,4 11 6 19 10 ONO 1020,0 36 0 0,0
26.05.2017 23:00:00 19,8 12,4 17,0 23,0 23,3 14,4 10 5 15 8 ONO 1020,1 38 0 0,0
26.05.2017 22:00:00 21,4 12,2 18,8 24,5 23,6 14,4 8 5 21 11 ONO 1019,9 44 0 0,0
26.05.2017 21:00:00 23,6 11,2 22,7 26,1 23,7 14,4 12 6 22 12 ONO 1019,6 51 59 0,0
26.05.2017 20:00:00 24,8 10,6 25,2 27,7 23,7 14,4 11 6 27 14 O 1019,9 40 60 0,0
26.05.2017 19:00:00 25,6 10,5 27,3 29,1 23,5 14,4 14 8 27 14 ONO 1019,7 32 60 0,0
26.05.2017 18:00:00 26,1 10,9 29,0 30,3 23,1 14,4 14 8 31 17 OZO 1020,1 29 60 0,0
26.05.2017 17:00:00 26,0 11,4 30,1 30,9 22,6 14,4 12 7 29 15 O 1020,4 25 60 0,0
26.05.2017 16:00:00 25,8 10,5 30,8 31,1 22,0 14,4 11 6 30 16 O 1020,9 25 60 0,0
26.05.2017 15:00:00 25,6 12,0 30,8 30,8 21,2 14,3 13 7 23 12 ONO 1021,4 35 60 0,0
26.05.2017 14:00:00 24,6 11,7 29,8 30,0 20,4 14,3 11 6 23 12 O 1022,1 32 60 0,0
26.05.2017 13:00:00 23,2 12,1 29,2 28,6 19,7 14,3 10 5 19 10 ONO 1022,7 29 60 0,0
26.05.2017 12:00:00 22,3 12,5 27,6 26,7 19,0 14,3 10 5 19 10 O 1023,0 33 60 0,0
26.05.2017 11:00:00 21,2 13,0 26,4 24,7 18,5 14,3 9 5 15 8 ONO 1023,5 28 60 0,0
26.05.2017 10:00:00 19,3 13,4 23,8 22,4 18,1 14,3 8 4 11 6 OZO 1023,8 22 60 0,0
26.05.2017 09:00:00 17,3 12,7 20,5 19,8 18,0 14,3 7 4 10 6 ONO 1023,9 23 60 0,0
26.05.2017 08:00:00 15,5 12,2 17,6 17,6 18,1 14,3 5 3 11 6 ONO 1023,7 21 60 0,0
26.05.2017 07:00:00 13,4 11,6 14,2 16,1 18,3 14,3 8 4 13 7 ONO 1023,6 13 49 0,0
26.05.2017 06:00:00 10,9 10,4 7,8 15,5 18,7 14,2 4 2 7 4 NO 1023,8 12 0 0,0
26.05.2017 05:00:00 10,6 10,2 6,7 16,0 19,1 14,2 4 2 7 4 NO 1023,9 14 0 0,0
26.05.2017 04:00:00 11,2 10,2 7,9 16,7 19,5 14,2 5 3 8 4 O 1023,7 17 0 0,0
26.05.2017 03:00:00 12,6 11,1 8,6 17,5 19,9 14,2 3 2 17 9 NO 1023,6 24 0 0,0
26.05.2017 02:00:00 14,2 11,6 11,9 18,2 20,3 14,2 7 4 13 7 NO 1023,8 32 0 0,0
26.05.2017 01:00:00 14,7 11,8 11,1 18,9 20,7 14,2 6 4 11 6 NNO 1023,8 38 0 0,0
26.05.2017 00:00:00 15,9 12,0 12,9 19,9 21,2 14,2 6 4 12 6 NNO 1023,8 41 0 0,0
25.05.2017 23:00:00 16,8 12,2 14,1 21,0 21,5 14,2 8 5 13 7 NNO 1023,7 48 0 0,0
25.05.2017 22:00:00 18,0 12,4 14,5 22,4 21,8 14,2 6 4 16 8 NNO 1023,4 47 0 0,0
25.05.2017 21:00:00 20,0 12,4 19,3 24,1 22,0 14,2 11 6 22 12 NNO 1023,0 52 57 0,0
25.05.2017 20:00:00 21,4 12,5 22,9 25,7 22,0 14,2 13 7 26 14 NNO 1023,1 36 58 0,0
25.05.2017 19:00:00 22,3 12,4 26,2 27,0 21,8 14,2 15 8 24 13 N 1023,1 34 58 0,0
25.05.2017 18:00:00 22,6 12,2 27,0 28,2 21,4 14,2 13 7 23 12 NNO 1023,6 29 58 0,0
25.05.2017 17:00:00 22,5 12,4 29,4 28,7 20,9 14,2 14 8 27 15 NNW 1023,8 47 52 0,0
25.05.2017 16:00:00 22,1 12,3 28,8 29,0 20,2 14,2 14 8 27 15 NNO 1024,2 24 60 0,0
25.05.2017 15:00:00 21,5 11,8 29,8 28,5 19,5 14,2 15 8 27 14 N 1024,6 26 60 0,0
25.05.2017 14:00:00 20,0 10,4 27,0 27,6 18,7 14,2 16 9 29 15 N 1024,9 30 60 0,0
25.05.2017 13:00:00 20,4 11,2 28,6 26,4 18,0 14,2 12 6 25 14 N 1025,1 29 60 0,0
25.05.2017 12:00:00 18,1 10,1 27,0 24,5 17,3 14,2 11 6 23 12 N 1025,4 26 60 0,0
25.05.2017 11:00:00 16,3 10,1 22,8 22,2 16,8 14,2 11 6 25 14 N 1025,4 24 60 0,0
25.05.2017 10:00:00 15,2 10,5 22,2 19,9 16,4 14,1 11 6 18 10 N 1025,5 17 60 0,0
25.05.2017 09:00:00 13,3 9,4 17,3 16,9 16,3 14,1 4 2 11 6 NNW 1025,5 10 33 0,0
25.05.2017 08:00:00 11,2 9,3 13,0 15,0 16,4 14,1 4 2 16 9 NW 1025,2 9 0 0,0
25.05.2017 07:00:00 10,3 9,8 10,6 14,2 16,7 14,1 9 5 13 7 NNW 1025,0 6 0 0,0
25.05.2017 06:00:00 8,1 8,1 5,7 13,6 17,0 14,1 3 2 8 4 WNW 1024,7 0,3 0 0,0
25.05.2017 05:00:00 9,8 9,5 5,8 14,2 17,3 14,1 5 3 8 4 NW 1024,4 4,6 0 0,0
25.05.2017 04:00:00 10,6 9,8 8,3 15,0 17,6 14,1 6 3 13 7 NW 1024,4 9 0 0,0
25.05.2017 03:00:00 11,3 10,1 9,1 15,7 17,9 14,1 5 3 17 9 N 1024,5 10 0 0,0
25.05.2017 02:00:00 12,2 10,7 11,7 15,8 18,2 14,1 10 5 17 9 N 1024,7 13 0 0,0
25.05.2017 01:00:00 12,5 10,8 10,1 16,3 18,6 14,1 9 5 13 7 NNW 1024,5 24 0 0,0
25.05.2017 00:00:00 13,5 11,0 11,4 17,1 18,9 14,1 10 5 16 9 NW 1024,3 33 0 0,0
24.05.2017 23:00:00 14,8 11,0 12,8 18,0 19,2 14,1 10 5 19 10 WNW 1024,0 44 0 0,0
24.05.2017 22:00:00 15,8 10,9 14,2 19,0 19,4 14,1 13 7 31 17 NW 1023,6 52 0 0,0
24.05.2017 21:00:00 17,5 10,9 16,9 20,2 19,5 14,0 20 11 29 16 NW 1023,4 41 14 0,0
24.05.2017 20:00:00 18,7 10,5 18,6 21,4 19,5 14,0 21 12 37 20 NW 1023,1 32 36 0,0
24.05.2017 19:00:00 19,6 11,7 20,7 22,1 19,4 14,0 19 10 33 18 NNW 1022,7 24 21 0,0
24.05.2017 18:00:00 19,6 12,0 21,9 22,4 19,3 14,0 19 10 36 19 NW 1022,8 25 7 0,0
24.05.2017 17:00:00 19,6 12,4 21,4 22,4 19,2 14,0 16 9 29 16 NW 1023,0 27 6 0,0
24.05.2017 16:00:00 18,9 11,9 20,0 22,3 19,0 14,0 12 6 24 13 WNW 1023,2 19 0 0,0
24.05.2017 15:00:00 18,9 11,5 20,9 23,0 18,7 14,0 16 9 24 13 WNW 1023,1 17 1 0,0
24.05.2017 14:00:00 19,1 11,2 23,8 23,6 18,3 14,0 15 8 26 14 W 1023,4 14 7 0,0
24.05.2017 13:00:00 17,8 10,3 21,3 22,8 17,8 14,0 11 6 16 9 WNW 1023,8 19 7 0,0
24.05.2017 12:00:00 17,6 9,8 21,6 21,3 17,4 13,9 6 4 12 6 WZW 1023,9 26 8 0,0
24.05.2017 11:00:00 15,8 8,9 19,0 19,8 17,2 13,9 6 3 9 5 ZO 1023,9 28 3 0,0
24.05.2017 10:00:00 15,1 9,2 18,7 17,9 17,0 13,9 4 2 10 5 NW 1024,2 25 3 0,0
24.05.2017 09:00:00 13,9 9,0 16,2 16,5 17,0 13,9 3 2 19 10 NW 1024,1 23 0 0,0
24.05.2017 08:00:00 12,6 9,2 13,5 15,6 17,2 13,9 3 1 17 9 NO 1023,6 25 0 0,0
24.05.2017 07:00:00 10,9 8,1 9,4 15,0 17,4 13,9 4 2 8 4 WZW 1023,3 9 0 0,0
24.05.2017 06:00:00 11,3 7,9 11,3 15,2 17,6 13,9 4 2 6 3 WZW 1023,1 30 0 0,0
24.05.2017 05:00:00 11,0 7,6 10,6 15,2 17,9 13,8 5 3 8 5 WZW 1023,1 34 0 0,0
24.05.2017 04:00:00 9,8 7,0 9,0 15,1 18,3 13,8 3 2 7 4 WZW 1023,0 34 0 0,0
24.05.2017 03:00:00 9,3 6,8 6,7 15,6 18,7 13,8 4 2 7 4 ZW 1023,0 26 0 0,0
24.05.2017 02:00:00 10,2 6,7 6,6 16,2 19,1 13,8 3 2 9 5 WZW 1023,1 40 0 0,0
24.05.2017 01:00:00 11,2 6,8 7,5 16,8 19,5 13,8 5 3 11 6 W 1023,3 39 0 0,0
24.05.2017 00:00:00 12,3 6,6 9,7 17,7 19,9 13,8 7 4 15 8 W 1023,2 39 0 0,0
23.05.2017 23:00:00 13,3 6,2 11,7 18,6 20,3 13,8 8 4 18 10 WNW 1023,1 50 0 0,0
23.05.2017 22:00:00 14,2 6,1 12,7 19,5 20,7 13,8 11 6 22 12 WNW 1022,7 56 0 0,0
23.05.2017 21:00:00 15,5 6,2 14,5 21,0 21,0 13,8 14 8 36 19 WNW 1021,8 45 0 0,0
23.05.2017 20:00:00 16,8 6,6 16,9 22,5 21,2 13,7 22 12 44 24 NW 1021,1 53 12 0,0
23.05.2017 19:00:00 17,8 6,6 19,2 24,0 21,3 13,7 21 11 42 23 NW 1020,3 32 20 0,0
23.05.2017 18:00:00 19,4 9,8 22,7 25,3 21,1 13,7 25 13 44 24 NW 1019,6 18 38 0,0
23.05.2017 17:00:00 20,3 10,2 23,6 26,2 20,9 13,7 25 14 52 28 WNW 1018,8 14 44 0,0
23.05.2017 16:00:00 20,6 12,8 22,8 26,6 20,6 13,7 26 14 46 25 WNW 1018,0 13 43 0,0
23.05.2017 15:00:00 22,6 13,1 26,5 26,7 20,2 13,7 23 13 38 20 WNW 1017,2 18 20 0,0
23.05.2017 14:00:00 24,2 10,0 28,7 27,3 19,6 13,7 17 9 40 22 W 1016,8 30 51 0,0
23.05.2017 13:00:00 23,1 8,6 28,9 26,4 19,0 13,7 16 9 33 18 W 1016,5 36 60 0,0
23.05.2017 12:00:00 23,1 10,6 27,5 24,9 18,4 13,6 18 10 35 19 W 1016,3 23 48 0,0
23.05.2017 11:00:00 22,2 11,4 25,8 23,6 18,0 13,6 14 8 25 14 W 1015,9 18 60 0,0
23.05.2017 10:00:00 21,2 11,9 23,1 21,5 17,7 13,6 10 5 22 12 WZW 1015,7 18 55 0,0
23.05.2017 09:00:00 19,3 11,2 20,3 19,4 17,5 13,6 8 5 18 10 WZW 1015,5 14 56 0,0
23.05.2017 08:00:00 18,2 11,1 19,3 17,7 17,6 13,6 11 6 17 9 ZZW 1015,1 22 57 0,0
23.05.2017 07:00:00 15,5 10,6 15,2 16,0 17,9 13,6 6 3 11 6 Z 1014,9 17 29 0,0
23.05.2017 06:00:00 13,7 10,0 10,0 15,9 18,2 13,6 8 4 10 5 ZZO 1014,6 13 0 0,0
23.05.2017 05:00:00 14,1 10,0 10,8 16,5 18,5 13,6 7 4 9 5 ZZO 1015,0 16 0 0,0
23.05.2017 04:00:00 14,0 10,0 10,7 17,0 18,8 13,6 3 1 5 3 ZO 1015,0 19 0 0,0
23.05.2017 03:00:00 14,7 10,1 10,8 17,6 19,1 13,6 2 1 10 5 ZZO 1015,2 21 0 0,0
23.05.2017 02:00:00 14,7 10,5 12,9 18,1 19,5 13,6 8 4 10 5 OZO 1015,3 21 0 0,0
23.05.2017 01:00:00 14,0 10,8 12,4 18,6 19,8 13,5 4 2 6 3 OZO 1015,8 19 0 0,0
23.05.2017 00:00:00 15,5 10,1 12,2 19,2 20,2 13,5 3 1 5 3 OZO 1016,3 23 0 0,0
22.05.2017 23:00:00 16,2 9,7 12,0 20,1 20,6 13,5 4 2 7 4 OZO 1016,3 28 0 0,0
22.05.2017 22:00:00 17,5 9,8 13,9 21,4 20,9 13,5 5 3 8 5 O 1016,1 36 0 0,0
22.05.2017 21:00:00 20,5 8,3 17,2 23,0 21,1 13,5 6 3 14 7 O 1016,0 42 8 0,0
22.05.2017 20:00:00 22,2 9,6 22,7 24,5 21,1 13,5 7 4 14 7 O 1016,4 44 19 0,0
22.05.2017 19:00:00 22,4 8,3 22,3 26,2 20,9 13,5 8 4 19 10 O 1016,3 44 55 0,0
22.05.2017 18:00:00 23,1 9,1 26,3 27,0 20,6 13,5 9 5 18 10 O 1017,0 29 52 0,0
22.05.2017 17:00:00 23,2 10,1 26,9 27,5 20,1 13,5 13 7 23 12 ZO 1017,6 38 52 0,0
22.05.2017 16:00:00 23,4 8,6 28,0 28,2 19,5 13,5 10 5 24 13 OZO 1017,9 33 51 0,0
22.05.2017 15:00:00 22,9 7,0 29,2 27,8 18,8 13,5 9 5 23 13 ONO 1018,5 60 55 0,0
22.05.2017 14:00:00 21,9 8,9 25,9 25,7 18,2 13,5 11 6 24 13 OZO 1019,2 52 29 0,0
22.05.2017 13:00:00 22,2 8,2 28,8 25,6 17,5 13,5 14 8 34 19 O 1019,7 28 37 0,0
22.05.2017 12:00:00 22,0 9,6 27,7 24,4 16,8 13,5 12 6 22 12 O 1020,3 26 54 0,0
22.05.2017 11:00:00 20,5 9,0 24,7 22,7 16,2 13,5 11 6 20 11 ZO 1020,6 26 60 0,0
22.05.2017 10:00:00 19,1 9,6 22,8 20,2 15,8 13,5 11 6 16 8 ZO 1021,0 26 60 0,0
22.05.2017 09:00:00 17,2 9,2 19,5 17,5 15,6 13,5 9 5 16 9 OZO 1021,3 25 60 0,0
22.05.2017 08:00:00 15,1 9,0 16,3 15,3 15,7 13,5 6 3 9 5 O 1021,4 34 60 0,0
22.05.2017 07:00:00 11,7 7,8 12,4 13,5 16,0 13,5 4 2 9 5 ONO 1021,6 18 44 0,0
22.05.2017 06:00:00 9,9 7,9 6,5 13,1 16,3 13,5 6 3 10 5 ONO 1021,8 10 0 0,0

tt = temperatuur
td = dauwpunt
tt 5cm = temperatuur 5cm
tt -5cm = temperatuur -5cm
tt -20cm = temperatuur -20cm
tt -100cm = temperatuur -100cm
ff = windsnelheid
fx = windstoten
dd = windrichting
ppp = luchtdruk
vv = zicht
sd = Zonneschijnduur
rr = neerslag

Weerstations in de omgeving